Time,TemperatureF,DewpointF,PressureIn,WindDirection,WindDirectionDegrees,WindSpeedMPH,WindSpeedGustMPH,Humidity,HourlyPrecipIn,Conditions,Clouds,dailyrainin,SoftwareType,DateUTC
2014-02-03 00:05:00,49.7,43.0,30.04,SSW,196,0.0,-999.0,79,-99.99,,,0.00,weatherlink.com 1.10,2014-02-03 05:05:00,
2014-02-03 00:20:00,49.1,44.0,30.04,SSW,196,0.0,-999.0,81,-99.99,,,0.00,weatherlink.com 1.10,2014-02-03 05:20:00,
2014-02-03 00:35:00,49.6,44.0,30.03,SSW,196,0.0,-999.0,81,-99.99,,,0.00,weatherlink.com 1.10,2014-02-03 05:35:00,
2014-02-03 00:50:00,49.9,44.0,30.03,SSW,196,0.0,-999.0,81,-99.99,,,0.00,weatherlink.com 1.10,2014-02-03 05:50:00,
2014-02-03 01:05:00,49.6,44.0,30.02,SSW,196,0.0,-999.0,81,-99.99,,,0.00,weatherlink.com 1.10,2014-02-03 06:05:00,
2014-02-03 01:20:00,49.2,44.0,30.03,SSW,196,0.0,-999.0,82,-99.99,,,0.00,weatherlink.com 1.10,2014-02-03 06:20:00,
2014-02-03 01:35:00,49.0,44.0,30.02,SSW,196,0.0,-999.0,82,-99.99,,,0.00,weatherlink.com 1.10,2014-02-03 06:35:00,
2014-02-03 01:50:00,49.4,44.0,30.02,SSW,196,0.0,-999.0,82,-99.99,,,0.00,weatherlink.com 1.10,2014-02-03 06:50:00,
2014-02-03 02:05:00,49.6,44.0,30.02,SSW,196,0.0,-999.0,82,-99.99,,,0.00,weatherlink.com 1.10,2014-02-03 07:05:00,
2014-02-03 02:20:00,49.4,44.0,30.02,SSW,196,0.0,-999.0,82,-99.99,,,0.00,weatherlink.com 1.10,2014-02-03 07:20:00,
2014-02-03 02:35:00,48.3,43.0,30.02,NNE,24,3.0,-999.0,83,-99.99,,,0.00,weatherlink.com 1.10,2014-02-03 07:35:00,
2014-02-03 02:50:00,48.6,44.0,30.01,NNE,26,2.0,-999.0,84,-99.99,,,0.00,weatherlink.com 1.10,2014-02-03 07:50:00,
2014-02-03 03:05:00,49.2,45.0,30.00,NNE,20,0.0,-999.0,84,-99.99,,,0.00,weatherlink.com 1.10,2014-02-03 08:05:00,
2014-02-03 03:20:00,49.9,45.0,30.00,NE,44,0.0,-999.0,84,-99.99,,,0.00,weatherlink.com 1.10,2014-02-03 08:20:00,
2014-02-03 03:35:00,50.3,45.0,30.01,SE,132,0.0,-999.0,83,-99.99,,,0.00,weatherlink.com 1.10,2014-02-03 08:35:00,
2014-02-03 03:50:00,50.1,45.0,29.99,SE,142,0.0,-999.0,83,-99.99,,,0.00,weatherlink.com 1.10,2014-02-03 08:50:00,
2014-02-03 04:05:00,49.3,45.0,29.98,NNE,18,4.0,-999.0,84,-99.99,,,0.00,weatherlink.com 1.10,2014-02-03 09:05:00,
2014-02-03 04:20:00,49.6,45.0,29.98,NNE,14,4.0,-999.0,85,-99.99,,,0.00,weatherlink.com 1.10,2014-02-03 09:20:00,
2014-02-03 04:36:00,49.7,45.0,29.99,NNE,23,6.0,-999.0,85,-99.99,,,0.00,weatherlink.com 1.10,2014-02-03 09:36:00,
2014-02-03 04:51:00,49.1,45.0,29.97,NNE,22,5.0,-999.0,84,-99.99,,,0.00,weatherlink.com 1.10,2014-02-03 09:51:00,
2014-02-03 05:06:00,48.8,44.0,29.98,NE,37,8.0,-999.0,83,-99.99,,,0.00,weatherlink.com 1.10,2014-02-03 10:06:00,
2014-02-03 05:21:00,48.4,44.0,29.97,NE,40,10.0,-999.0,83,-99.99,,,0.00,weatherlink.com 1.10,2014-02-03 10:21:00,
2014-02-03 05:36:00,47.6,43.0,29.97,NNE,15,10.0,-999.0,83,-99.99,,,0.00,weatherlink.com 1.10,2014-02-03 10:36:00,
2014-02-03 05:51:00,46.3,42.0,29.99,NNE,15,10.0,-999.0,86,-99.99,,,0.01,weatherlink.com 1.10,2014-02-03 10:51:00,
2014-02-03 06:06:00,45.1,42.0,29.97,NNE,32,6.0,-999.0,89,-99.99,,,0.01,weatherlink.com 1.10,2014-02-03 11:06:00,
2014-02-03 06:21:00,44.6,42.0,29.98,NNE,23,8.0,-999.0,91,-99.99,,,0.01,weatherlink.com 1.10,2014-02-03 11:21:00,
2014-02-03 06:36:00,43.9,42.0,30.00,NNE,31,11.0,-999.0,91,-99.99,,,0.03,weatherlink.com 1.10,2014-02-03 11:36:00,
2014-02-03 06:51:00,43.2,41.0,29.98,NE,40,10.0,-999.0,92,-99.99,,,0.06,weatherlink.com 1.10,2014-02-03 11:51:00,
2014-02-03 07:06:00,42.7,41.0,29.97,NNE,19,10.0,-999.0,93,-99.99,,,0.14,weatherlink.com 1.10,2014-02-03 12:06:00,
2014-02-03 07:21:00,42.5,41.0,29.96,NNE,15,4.0,-999.0,94,-99.99,,,0.20,weatherlink.com 1.10,2014-02-03 12:21:00,
2014-02-03 07:36:00,42.2,41.0,29.96,ENE,57,6.0,-999.0,94,-99.99,,,0.20,weatherlink.com 1.10,2014-02-03 12:36:00,
2014-02-03 07:51:00,42.2,41.0,29.97,ENE,75,4.0,-999.0,94,-99.99,,,0.21,weatherlink.com 1.10,2014-02-03 12:51:00,
2014-02-03 08:06:00,42.1,41.0,29.97,NE,42,4.0,-999.0,95,-99.99,,,0.23,weatherlink.com 1.10,2014-02-03 13:06:00,
2014-02-03 08:21:00,42.1,41.0,29.96,NE,51,6.0,-999.0,95,-99.99,,,0.25,weatherlink.com 1.10,2014-02-03 13:21:00,
2014-02-03 08:36:00,42.0,41.0,29.96,NE,44,6.0,-999.0,95,-99.99,,,0.25,weatherlink.com 1.10,2014-02-03 13:36:00,
2014-02-03 08:51:00,41.9,41.0,29.96,NE,34,4.0,-999.0,95,-99.99,,,0.25,weatherlink.com 1.10,2014-02-03 13:51:00,
2014-02-03 09:06:00,41.9,41.0,29.96,NE,38,3.0,-999.0,95,-99.99,,,0.25,weatherlink.com 1.10,2014-02-03 14:06:00,
2014-02-03 09:21:00,41.9,41.0,29.97,NNE,32,5.0,-999.0,95,-99.99,,,0.27,weatherlink.com 1.10,2014-02-03 14:21:00,
2014-02-03 09:36:00,41.9,41.0,29.98,NW,315,7.0,-999.0,96,-99.99,,,0.30,weatherlink.com 1.10,2014-02-03 14:36:00,
2014-02-03 09:51:00,42.1,41.0,30.02,NW,312,3.0,-999.0,96,-99.99,,,0.37,weatherlink.com 1.10,2014-02-03 14:51:00,
2014-02-03 10:06:00,42.4,41.0,30.02,NW,318,4.0,-999.0,96,-99.99,,,0.39,weatherlink.com 1.10,2014-02-03 15:06:00,
2014-02-03 10:21:00,42.6,42.0,30.03,NNW,348,4.0,-999.0,96,-99.99,,,0.40,weatherlink.com 1.10,2014-02-03 15:21:00,
2014-02-03 10:36:00,42.7,42.0,30.02,North,349,8.0,-999.0,96,-99.99,,,0.41,weatherlink.com 1.10,2014-02-03 15:36:00,
2014-02-03 10:51:00,42.9,42.0,30.00,North,350,3.0,-999.0,96,-99.99,,,0.41,weatherlink.com 1.10,2014-02-03 15:51:00,
2014-02-03 11:06:00,43.0,42.0,30.00,North,11,3.0,-999.0,95,-99.99,,,0.41,weatherlink.com 1.10,2014-02-03 16:06:00,
2014-02-03 11:21:00,43.1,42.0,29.99,NE,38,5.0,-999.0,95,-99.99,,,0.41,weatherlink.com 1.10,2014-02-03 16:21:00,
2014-02-03 11:36:00,42.9,41.0,29.94,NE,52,6.0,-999.0,94,-99.99,,,0.41,weatherlink.com 1.10,2014-02-03 16:36:00,
2014-02-03 11:51:00,43.1,42.0,29.93,East,101,0.0,-999.0,94,-99.99,,,0.41,weatherlink.com 1.10,2014-02-03 16:51:00,
2014-02-03 12:06:00,43.1,42.0,30.01,NW,309,7.0,-999.0,94,-99.99,,,0.41,weatherlink.com 1.10,2014-02-03 17:06:00,
2014-02-03 12:21:00,42.8,41.0,30.02,NW,311,9.0,-999.0,94,-99.99,,,0.41,weatherlink.com 1.10,2014-02-03 17:21:00,
2014-02-03 12:36:00,42.2,40.0,30.03,North,360,11.0,-999.0,93,-99.99,,,0.41,weatherlink.com 1.10,2014-02-03 17:36:00,
2014-02-03 12:51:00,42.1,40.0,30.04,NNW,340,18.0,-999.0,92,-99.99,,,0.41,weatherlink.com 1.10,2014-02-03 17:51:00,
2014-02-03 13:06:00,41.9,40.0,30.05,NW,311,14.0,-999.0,92,-99.99,,,0.41,weatherlink.com 1.10,2014-02-03 18:06:00,
2014-02-03 13:21:00,41.6,40.0,30.05,WNW,290,9.0,-999.0,92,-99.99,,,0.41,weatherlink.com 1.10,2014-02-03 18:21:00,
2014-02-03 13:36:00,40.8,39.0,30.07,NNW,327,16.0,-999.0,92,-99.99,,,0.41,weatherlink.com 1.10,2014-02-03 18:36:00,
2014-02-03 14:07:00,39.9,38.0,30.09,North,9,13.0,-999.0,92,-99.99,,,0.41,weatherlink.com 1.10,2014-02-03 19:07:00,
2014-02-03 14:22:00,39.8,37.0,30.09,NW,323,10.0,-999.0,91,-99.99,,,0.41,weatherlink.com 1.10,2014-02-03 19:22:00,
2014-02-03 14:37:00,39.9,38.0,30.09,NNE,17,11.0,-999.0,92,-99.99,,,0.41,weatherlink.com 1.10,2014-02-03 19:37:00,
2014-02-03 14:52:00,40.2,38.0,30.09,North,355,5.0,-999.0,92,-99.99,,,0.41,weatherlink.com 1.10,2014-02-03 19:52:00,
2014-02-03 15:07:00,40.5,38.0,30.10,NNW,329,10.0,-999.0,91,-99.99,,,0.41,weatherlink.com 1.10,2014-02-03 20:07:00,
2014-02-03 15:22:00,40.1,37.0,30.11,NNE,30,11.0,-999.0,89,-99.99,,,0.41,weatherlink.com 1.10,2014-02-03 20:22:00,
2014-02-03 15:37:00,40.1,37.0,30.12,North,360,15.0,-999.0,88,-99.99,,,0.41,weatherlink.com 1.10,2014-02-03 20:37:00,
2014-02-03 15:52:00,40.0,37.0,30.13,NNW,338,13.0,-999.0,88,-99.99,,,0.41,weatherlink.com 1.10,2014-02-03 20:52:00,
2014-02-03 16:07:00,39.8,36.0,30.15,North,355,7.0,-999.0,87,-99.99,,,0.41,weatherlink.com 1.10,2014-02-03 21:07:00,
2014-02-03 16:22:00,39.6,36.0,30.16,North,355,13.0,-999.0,87,-99.99,,,0.41,weatherlink.com 1.10,2014-02-03 21:22:00,
2014-02-03 16:37:00,39.5,36.0,30.17,North,360,9.0,-999.0,88,-99.99,,,0.41,weatherlink.com 1.10,2014-02-03 21:37:00,
2014-02-03 16:52:00,39.1,36.0,30.18,NNW,336,8.0,-999.0,88,-99.99,,,0.41,weatherlink.com 1.10,2014-02-03 21:52:00,
2014-02-03 17:07:00,39.0,36.0,30.19,North,360,11.0,-999.0,88,-99.99,,,0.41,weatherlink.com 1.10,2014-02-03 22:07:00,
2014-02-03 17:37:00,38.8,36.0,30.20,NNE,14,3.0,-999.0,88,-99.99,,,0.41,weatherlink.com 1.10,2014-02-03 22:37:00,
2014-02-03 17:52:00,38.8,36.0,30.21,NNE,13,6.0,-999.0,88,-99.99,,,0.41,weatherlink.com 1.10,2014-02-03 22:52:00,
2014-02-03 18:07:00,38.9,36.0,30.21,North,9,6.0,-999.0,89,-99.99,,,0.41,weatherlink.com 1.10,2014-02-03 23:07:00,
2014-02-03 18:22:00,38.9,36.0,30.22,North,350,8.0,-999.0,89,-99.99,,,0.41,weatherlink.com 1.10,2014-02-03 23:22:00,
2014-02-03 18:37:00,39.0,36.0,30.23,NNW,340,4.0,-999.0,89,-99.99,,,0.41,weatherlink.com 1.10,2014-02-03 23:37:00,
2014-02-03 18:52:00,39.0,36.0,30.25,NNE,17,9.0,-999.0,89,-99.99,,,0.41,weatherlink.com 1.10,2014-02-03 23:52:00,
2014-02-03 19:07:00,39.1,36.0,30.26,NNE,15,7.0,-999.0,89,-99.99,,,0.41,weatherlink.com 1.10,2014-02-04 00:07:00,
2014-02-03 19:22:00,39.1,36.0,30.27,NNW,331,8.0,-999.0,89,-99.99,,,0.41,weatherlink.com 1.10,2014-02-04 00:22:00,
2014-02-03 19:37:00,39.1,36.0,30.27,NNW,340,7.0,-999.0,89,-99.99,,,0.41,weatherlink.com 1.10,2014-02-04 00:37:00,
2014-02-03 19:52:00,39.1,36.0,30.28,North,360,6.0,-999.0,89,-99.99,,,0.41,weatherlink.com 1.10,2014-02-04 00:52:00,
2014-02-03 20:07:00,39.1,36.0,30.29,WNW,298,12.0,-999.0,89,-99.99,,,0.41,weatherlink.com 1.10,2014-02-04 01:07:00,
2014-02-03 20:22:00,39.1,36.0,30.29,NE,39,3.0,-999.0,88,-99.99,,,0.41,weatherlink.com 1.10,2014-02-04 01:22:00,
2014-02-03 20:37:00,39.0,36.0,30.30,North,9,3.0,-999.0,88,-99.99,,,0.41,weatherlink.com 1.10,2014-02-04 01:37:00,
2014-02-03 20:52:00,39.0,36.0,30.29,North,5,4.0,-999.0,88,-99.99,,,0.41,weatherlink.com 1.10,2014-02-04 01:52:00,
2014-02-03 21:07:00,39.0,36.0,30.29,North,360,12.0,-999.0,88,-99.99,,,0.41,weatherlink.com 1.10,2014-02-04 02:07:00,
2014-02-03 21:22:00,38.9,36.0,30.29,NE,49,7.0,-999.0,88,-99.99,,,0.41,weatherlink.com 1.10,2014-02-04 02:22:00,
2014-02-03 21:37:00,38.9,35.0,30.30,NNE,30,5.0,-999.0,87,-99.99,,,0.41,weatherlink.com 1.10,2014-02-04 02:37:00,
2014-02-03 21:53:00,38.8,35.0,30.30,NNE,13,0.0,-999.0,86,-99.99,,,0.41,weatherlink.com 1.10,2014-02-04 02:53:00,
2014-02-03 22:08:00,38.7,35.0,30.31,NNE,28,3.0,-999.0,86,-99.99,,,0.41,weatherlink.com 1.10,2014-02-04 03:08:00,
2014-02-03 22:23:00,38.6,35.0,30.32,NNE,32,2.0,-999.0,86,-99.99,,,0.41,weatherlink.com 1.10,2014-02-04 03:23:00,
2014-02-03 22:38:00,38.5,35.0,30.33,NNE,18,0.0,-999.0,86,-99.99,,,0.41,weatherlink.com 1.10,2014-02-04 03:38:00,
2014-02-03 22:53:00,38.3,35.0,30.34,NNE,14,3.0,-999.0,86,-99.99,,,0.41,weatherlink.com 1.10,2014-02-04 03:53:00,
2014-02-03 23:08:00,38.1,34.0,30.34,NNE,18,2.0,-999.0,86,-99.99,,,0.41,weatherlink.com 1.10,2014-02-04 04:08:00,
2014-02-03 23:23:00,37.9,34.0,30.35,NNW,331,0.0,-999.0,86,-99.99,,,0.41,weatherlink.com 1.10,2014-02-04 04:23:00,
2014-02-03 23:38:00,37.5,34.0,30.35,North,10,2.0,-999.0,86,-99.99,,,0.41,weatherlink.com 1.10,2014-02-04 04:38:00,
2014-02-03 23:53:00,37.0,33.0,30.36,North,355,0.0,-999.0,86,-99.99,,,0.41,weatherlink.com 1.10,2014-02-04 04:53:00,